Regional Weather Roundup
Issued by NWS

Home | Current Version | Previous Version | Text Only | Print | Product List | Glossary Off
Versions: 1 2 3 4 5 6 7 8 9 10 11 12 13 14 15 16 17 18 19 20 21 22 23 24 25 26 27 28 29 30 31 32 33 34 35 36 37 38 39 40 41 42 43 44 45 46 47 48 49 50

000
ASUS43 KFSD 012010
RWRSD

WEATHER ROUNDUP FOR SOUTH DAKOTA
NATIONAL WEATHER SERVICE SIOUX FALLS SD
200 PM CST SUN MAR 01 2015

NOTE: "FAIR" INDICATES FEW OR NO CLOUDS BELOW 12,000 FEET WITH NO
SIGNIFICANT WEATHER AND/OR OBSTRUCTIONS TO VISIBILITY.


SDZ001>005-009-010-012>017-012100-
NORTHWEST AND NORTH CENTRAL SOUTH DAKOTA

CITY           SKY/WX    TMP DP  RH WIND       PRES   REMARKS
BUFFALO          N/A     24  11  57 W23G31    30.21  WCI   9
FAITH            N/A     29  10  45 NW21G28   30.26  WCI  16
MOBRIDGE       MIX PCPN  30  16  56 NW17      30.25  WCI  18
$$

SDZ012>016-024>037-041>051-057-063-072>074-012100-
SOUTHWEST AND SOUTH CENTRAL SOUTH DAKOTA

CITY           SKY/WX    TMP DP  RH WIND       PRES   REMARKS
RAPID CTY ARPT SUNNY     28  12  51 N24       30.26  WCI  14
PIERRE         PTSUNNY   33   9  36 NW25      30.29  WCI  20
CUSTER         SUNNY     23  -2  33 W14G24    30.14  WCI  11
ELLSWORTH AFB  SUNNY     27  14  57 N21G28    30.25  WCI  13
PHILIP         MOSUNNY   34   8  33 W22G30    30.30  WCI  22
PINE RIDGE     MOSUNNY   35   8  32 NW15G24   30.25  WCI  25
WINNER         MOCLDY    36   4  26 NW22G29   30.29
$$

SDZ004>011-016>023-039-040-012100-
NORTHEAST SOUTH DAKOTA

CITY           SKY/WX    TMP DP  RH WIND       PRES   REMARKS
ABERDEEN       CLOUDY    28  17  63 NW15      30.29R WCI  16
WATERTOWN      PTSUNNY   27  16  63 W21       30.22  WCI  13
SISSETON         N/A     27  17  66 NW23      30.23  WCI  12
$$

SDZ017-020-022-023-036>040-048>070-012100-
SOUTHEAST SOUTH DAKOTA

CITY           SKY/WX    TMP DP  RH WIND       PRES   REMARKS
SIOUX FALLS    MOSUNNY   32  12  43 W16G26    30.28  WCI  21
HURON          MOSUNNY   30  18  60 NW21      30.30  WCI  17
CHAMBERLAIN    CLOUDY    33   7  33 NW18G26   30.30S WCI  22
MITCHELL       PTSUNNY   36   9  32 NW25G32   30.31
YANKTON        SUNNY     36  10  35 W13G25    30.33F
$$

ABBREVIATIONS USED IN REMARKS
   TC - TEMPERATURE IN CELSIUS
  WCI - WIND CHILL INDEX
   HX - HEAT INDEX
  VSB - VISIBILITY




USA.gov is the U.S. government's official web portal to all federal, state and local government web resources and services.